owner,sensor,date,latitude,longitude,vertical_datum,sea_water_temperature,qcFlag 
COMPS,ioos:station:USF.COMPS:C10:1,2017-04-01T00:05:00Z,27.1690,-82.9260,-1.0,21.62,2 
COMPS,ioos:station:USF.COMPS:C10:1,2017-04-01T00:35:00Z,27.1690,-82.9260,-1.0,21.6,2 
COMPS,ioos:station:USF.COMPS:C10:1,2017-04-01T01:05:00Z,27.1690,-82.9260,-1.0,21.6,2 
COMPS,ioos:station:USF.COMPS:C10:1,2017-04-01T01:35:00Z,27.1690,-82.9260,-1.0,21.6,2 
COMPS,ioos:station:USF.COMPS:C10:1,2017-04-01T02:05:00Z,27.1690,-82.9260,-1.0,21.58,2 
COMPS,ioos:station:USF.COMPS:C10:1,2017-04-01T02:35:00Z,27.1690,-82.9260,-1.0,21.57,2 
COMPS,ioos:station:USF.COMPS:C10:1,2017-04-01T03:05:00Z,27.1690,-82.9260,-1.0,21.56,2 
COMPS,ioos:station:USF.COMPS:C10:1,2017-04-01T03:35:00Z,27.1690,-82.9260,-1.0,21.54,2 
COMPS,ioos:station:USF.COMPS:C10:1,2017-04-01T04:05:00Z,27.1690,-82.9260,-1.0,21.55,2 
COMPS,ioos:station:USF.COMPS:C10:1,2017-04-01T04:35:00Z,27.1690,-82.9260,-1.0,21.53,2 
COMPS,ioos:station:USF.COMPS:C10:1,2017-04-01T05:05:00Z,27.1690,-82.9260,-1.0,21.55,2 
COMPS,ioos:station:USF.COMPS:C10:1,2017-04-01T05:35:00Z,27.1690,-82.9260,-1.0,21.54,2 
COMPS,ioos:station:USF.COMPS:C10:1,2017-04-01T06:05:00Z,27.1690,-82.9260,-1.0,21.52,2 
COMPS,ioos:station:USF.COMPS:C10:1,2017-04-01T06:35:00Z,27.1690,-82.9260,-1.0,21.53,2 
COMPS,ioos:station:USF.COMPS:C10:1,2017-04-01T07:05:00Z,27.1690,-82.9260,-1.0,21.54,2 
COMPS,ioos:station:USF.COMPS:C10:1,2017-04-01T07:35:00Z,27.1690,-82.9260,-1.0,21.52,2 
COMPS,ioos:station:USF.COMPS:C10:1,2017-04-01T08:05:00Z,27.1690,-82.9260,-1.0,21.53,2 
COMPS,ioos:station:USF.COMPS:C10:1,2017-04-01T08:35:00Z,27.1690,-82.9260,-1.0,21.51,2 
COMPS,ioos:station:USF.COMPS:C10:1,2017-04-01T12:05:00Z,27.1690,-82.9260,-1.0,21.54,2 
COMPS,ioos:station:USF.COMPS:C10:1,2017-04-01T12:35:00Z,27.1690,-82.9260,-1.0,21.56,2 
COMPS,ioos:station:USF.COMPS:C10:1,2017-04-01T13:05:00Z,27.1690,-82.9260,-1.0,21.57,2 
COMPS,ioos:station:USF.COMPS:C10:1,2017-04-01T13:35:00Z,27.1690,-82.9260,-1.0,21.59,2 
COMPS,ioos:station:USF.COMPS:C10:1,2017-04-01T14:05:00Z,27.1690,-82.9260,-1.0,21.6,2 
COMPS,ioos:station:USF.COMPS:C10:1,2017-04-01T14:35:00Z,27.1690,-82.9260,-1.0,21.62,2 
COMPS,ioos:station:USF.COMPS:C10:1,2017-04-01T16:05:00Z,27.1690,-82.9260,-1.0,21.73,2 
COMPS,ioos:station:USF.COMPS:C10:1,2017-04-01T16:35:00Z,27.1690,-82.9260,-1.0,21.91,2 
COMPS,ioos:station:USF.COMPS:C10:1,2017-04-01T18:05:00Z,27.1690,-82.9260,-1.0,22.5,2 
COMPS,ioos:station:USF.COMPS:C10:1,2017-04-01T18:35:00Z,27.1690,-82.9260,-1.0,22.79,2 
COMPS,ioos:station:USF.COMPS:C10:1,2017-04-01T19:05:00Z,27.1690,-82.9260,-1.0,22.89,2 
COMPS,ioos:station:USF.COMPS:C10:1,2017-04-01T19:35:00Z,27.1690,-82.9260,-1.0,23.33,2 
COMPS,ioos:station:USF.COMPS:C10:1,2017-04-01T20:05:00Z,27.1690,-82.9260,-1.0,23.33,2 
COMPS,ioos:station:USF.COMPS:C10:1,2017-04-01T20:35:00Z,27.1690,-82.9260,-1.0,23.34,2 
COMPS,ioos:station:USF.COMPS:C10:1,2017-04-01T21:05:00Z,27.1690,-82.9260,-1.0,23.16,2 
COMPS,ioos:station:USF.COMPS:C10:1,2017-04-01T21:35:00Z,27.1690,-82.9260,-1.0,23.23,2 
COMPS,ioos:station:USF.COMPS:C10:1,2017-04-01T22:05:00Z,27.1690,-82.9260,-1.0,22.85,2 
COMPS,ioos:station:USF.COMPS:C10:1,2017-04-01T22:35:00Z,27.1690,-82.9260,-1.0,22.87,2 
COMPS,ioos:station:USF.COMPS:C10:1,2017-04-01T23:05:00Z,27.1690,-82.9260,-1.0,22.71,2 
COMPS,ioos:station:USF.COMPS:C10:1,2017-04-01T23:35:00Z,27.1690,-82.9260,-1.0,22.65,2 
COMPS,ioos:station:USF.COMPS:C10:1,2017-04-02T00:05:00Z,27.1690,-82.9260,-1.0,22.41,2 
COMPS,ioos:station:USF.COMPS:C10:1,2017-04-02T00:35:00Z,27.1690,-82.9260,-1.0,22.39,2 
COMPS,ioos:station:USF.COMPS:C10:1,2017-04-02T01:05:00Z,27.1690,-82.9260,-1.0,22.55,2 
COMPS,ioos:station:USF.COMPS:C10:1,2017-04-02T01:35:00Z,27.1690,-82.9260,-1.0,22.75,2 
COMPS,ioos:station:USF.COMPS:C10:1,2017-04-02T02:05:00Z,27.1690,-82.9260,-1.0,22.8,2 
COMPS,ioos:station:USF.COMPS:C10:1,2017-04-02T02:35:00Z,27.1690,-82.9260,-1.0,22.62,2 
COMPS,ioos:station:USF.COMPS:C10:1,2017-04-02T03:05:00Z,27.1690,-82.9260,-1.0,22.89,2 
COMPS,ioos:station:USF.COMPS:C10:1,2017-04-02T03:35:00Z,27.1690,-82.9260,-1.0,23.14,2 
COMPS,ioos:station:USF.COMPS:C10:1,2017-04-02T04:05:00Z,27.1690,-82.9260,-1.0,22.97,2 
COMPS,ioos:station:USF.COMPS:C10:1,2017-04-02T04:35:00Z,27.1690,-82.9260,-1.0,23.02,2 
COMPS,ioos:station:USF.COMPS:C10:1,2017-04-02T05:05:00Z,27.1690,-82.9260,-1.0,22.97,2 
COMPS,ioos:station:USF.COMPS:C10:1,2017-04-02T05:35:00Z,27.1690,-82.9260,-1.0,22.46,2 
COMPS,ioos:station:USF.COMPS:C10:1,2017-04-02T06:05:00Z,27.1690,-82.9260,-1.0,22.35,2 
COMPS,ioos:station:USF.COMPS:C10:1,2017-04-02T06:35:00Z,27.1690,-82.9260,-1.0,22.36,2 
COMPS,ioos:station:USF.COMPS:C10:1,2017-04-02T07:05:00Z,27.1690,-82.9260,-1.0,22.62,2 
COMPS,ioos:station:USF.COMPS:C10:1,2017-04-02T07:35:00Z,27.1690,-82.9260,-1.0,22.52,2 
COMPS,ioos:station:USF.COMPS:C10:1,2017-04-02T10:05:00Z,27.1690,-82.9260,-1.0,22.08,2 
COMPS,ioos:station:USF.COMPS:C10:1,2017-04-02T10:35:00Z,27.1690,-82.9260,-1.0,22.0,2 
COMPS,ioos:station:USF.COMPS:C10:1,2017-04-02T11:05:00Z,27.1690,-82.9260,-1.0,21.97,2 
COMPS,ioos:station:USF.COMPS:C10:1,2017-04-02T11:35:00Z,27.1690,-82.9260,-1.0,21.96,2 
COMPS,ioos:station:USF.COMPS:C10:1,2017-04-02T12:05:00Z,27.1690,-82.9260,-1.0,21.98,2 
COMPS,ioos:station:USF.COMPS:C10:1,2017-04-02T12:35:00Z,27.1690,-82.9260,-1.0,21.95,2 
COMPS,ioos:station:USF.COMPS:C10:1,2017-04-02T13:05:00Z,27.1690,-82.9260,-1.0,21.98,2 
COMPS,ioos:station:USF.COMPS:C10:1,2017-04-02T13:35:00Z,27.1690,-82.9260,-1.0,22.01,2 
COMPS,ioos:station:USF.COMPS:C10:1,2017-04-02T14:05:00Z,27.1690,-82.9260,-1.0,22.05,2 
COMPS,ioos:station:USF.COMPS:C10:1,2017-04-02T14:35:00Z,27.1690,-82.9260,-1.0,22.11,2 
COMPS,ioos:station:USF.COMPS:C10:1,2017-04-02T15:05:00Z,27.1690,-82.9260,-1.0,22.18,2 
COMPS,ioos:station:USF.COMPS:C10:1,2017-04-02T15:35:00Z,27.1690,-82.9260,-1.0,22.22,2 
COMPS,ioos:station:USF.COMPS:C10:1,2017-04-02T16:05:00Z,27.1690,-82.9260,-1.0,22.26,2 
COMPS,ioos:station:USF.COMPS:C10:1,2017-04-02T16:35:00Z,27.1690,-82.9260,-1.0,22.34,2 
COMPS,ioos:station:USF.COMPS:C10:1,2017-04-02T17:05:00Z,27.1690,-82.9260,-1.0,22.44,2 
COMPS,ioos:station:USF.COMPS:C10:1,2017-04-02T17:35:00Z,27.1690,-82.9260,-1.0,22.54,2 
COMPS,ioos:station:USF.COMPS:C10:1,2017-04-02T18:05:00Z,27.1690,-82.9260,-1.0,22.36,2 
COMPS,ioos:station:USF.COMPS:C10:1,2017-04-02T18:35:00Z,27.1690,-82.9260,-1.0,22.85,2 
COMPS,ioos:station:USF.COMPS:C10:1,2017-04-02T19:05:00Z,27.1690,-82.9260,-1.0,22.68,2 
COMPS,ioos:station:USF.COMPS:C10:1,2017-04-02T19:35:00Z,27.1690,-82.9260,-1.0,22.87,2 
COMPS,ioos:station:USF.COMPS:C10:1,2017-04-02T20:05:00Z,27.1690,-82.9260,-1.0,23.61,2 
COMPS,ioos:station:USF.COMPS:C10:1,2017-04-02T20:35:00Z,27.1690,-82.9260,-1.0,23.46,2 
COMPS,ioos:station:USF.COMPS:C10:1,2017-04-02T21:05:00Z,27.1690,-82.9260,-1.0,23.7,2 
COMPS,ioos:station:USF.COMPS:C10:1,2017-04-02T21:35:00Z,27.1690,-82.9260,-1.0,23.73,2 
COMPS,ioos:station:USF.COMPS:C10:1,2017-04-02T22:05:00Z,27.1690,-82.9260,-1.0,23.72,2 
COMPS,ioos:station:USF.COMPS:C10:1,2017-04-02T22:35:00Z,27.1690,-82.9260,-1.0,23.51,2 
COMPS,ioos:station:USF.COMPS:C10:1,2017-04-02T23:05:00Z,27.1690,-82.9260,-1.0,23.36,2 
COMPS,ioos:station:USF.COMPS:C10:1,2017-04-02T23:35:00Z,27.1690,-82.9260,-1.0,23.25,2 
COMPS,ioos:station:USF.COMPS:C10:1,2017-04-03T00:05:00Z,27.1690,-82.9260,-1.0,23.03,2 
COMPS,ioos:station:USF.COMPS:C10:1,2017-04-03T00:35:00Z,27.1690,-82.9260,-1.0,22.91,2 
COMPS,ioos:station:USF.COMPS:C10:1,2017-04-03T01:05:00Z,27.1690,-82.9260,-1.0,22.69,2 
COMPS,ioos:station:USF.COMPS:C10:1,2017-04-03T01:35:00Z,27.1690,-82.9260,-1.0,22.64,2 
COMPS,ioos:station:USF.COMPS:C10:1,2017-04-03T02:05:00Z,27.1690,-82.9260,-1.0,22.54,2 
COMPS,ioos:station:USF.COMPS:C10:1,2017-04-03T02:35:00Z,27.1690,-82.9260,-1.0,22.5,2 
COMPS,ioos:station:USF.COMPS:C10:1,2017-04-03T03:05:00Z,27.1690,-82.9260,-1.0,22.5,2 
COMPS,ioos:station:USF.COMPS:C10:1,2017-04-03T03:35:00Z,27.1690,-82.9260,-1.0,22.57,2 
COMPS,ioos:station:USF.COMPS:C10:1,2017-04-03T04:05:00Z,27.1690,-82.9260,-1.0,22.52,2 
COMPS,ioos:station:USF.COMPS:C10:1,2017-04-03T04:35:00Z,27.1690,-82.9260,-1.0,22.53,2 
COMPS,ioos:station:USF.COMPS:C10:1,2017-04-03T05:05:00Z,27.1690,-82.9260,-1.0,22.57,2 
COMPS,ioos:station:USF.COMPS:C10:1,2017-04-03T05:35:00Z,27.1690,-82.9260,-1.0,22.57,2 
COMPS,ioos:station:USF.COMPS:C10:1,2017-04-03T06:05:00Z,27.1690,-82.9260,-1.0,22.58,2 
COMPS,ioos:station:USF.COMPS:C10:1,2017-04-03T06:35:00Z,27.1690,-82.9260,-1.0,22.57,2 
COMPS,ioos:station:USF.COMPS:C10:1,2017-04-03T07:05:00Z,27.1690,-82.9260,-1.0,22.54,2 
COMPS,ioos:station:USF.COMPS:C10:1,2017-04-03T07:35:00Z,27.1690,-82.9260,-1.0,22.51,2 
COMPS,ioos:station:USF.COMPS:C10:1,2017-04-03T08:05:00Z,27.1690,-82.9260,-1.0,22.49,2 
COMPS,ioos:station:USF.COMPS:C10:1,2017-04-03T08:35:00Z,27.1690,-82.9260,-1.0,22.45,2 
COMPS,ioos:station:USF.COMPS:C10:1,2017-04-03T09:05:00Z,27.1690,-82.9260,-1.0,22.42,2 
COMPS,ioos:station:USF.COMPS:C10:1,2017-04-03T09:35:00Z,27.1690,-82.9260,-1.0,22.4,2 
COMPS,ioos:station:USF.COMPS:C10:1,2017-04-03T10:05:00Z,27.1690,-82.9260,-1.0,22.4,2 
COMPS,ioos:station:USF.COMPS:C10:1,2017-04-03T10:35:00Z,27.1690,-82.9260,-1.0,22.38,2 
COMPS,ioos:station:USF.COMPS:C10:1,2017-04-03T11:05:00Z,27.1690,-82.9260,-1.0,22.34,2 
COMPS,ioos:station:USF.COMPS:C10:1,2017-04-03T11:35:00Z,27.1690,-82.9260,-1.0,22.33,2 
COMPS,ioos:station:USF.COMPS:C10:1,2017-04-03T12:05:00Z,27.1690,-82.9260,-1.0,22.33,2 
COMPS,ioos:station:USF.COMPS:C10:1,2017-04-03T12:35:00Z,27.1690,-82.9260,-1.0,22.3,2 
COMPS,ioos:station:USF.COMPS:C10:1,2017-04-03T13:05:00Z,27.1690,-82.9260,-1.0,22.27,2 
COMPS,ioos:station:USF.COMPS:C10:1,2017-04-03T13:35:00Z,27.1690,-82.9260,-1.0,22.28,2 
COMPS,ioos:station:USF.COMPS:C10:1,2017-04-03T14:05:00Z,27.1690,-82.9260,-1.0,22.31,2 
COMPS,ioos:station:USF.COMPS:C10:1,2017-04-03T14:35:00Z,27.1690,-82.9260,-1.0,22.32,2 
COMPS,ioos:station:USF.COMPS:C10:1,2017-04-03T15:05:00Z,27.1690,-82.9260,-1.0,22.31,2 
COMPS,ioos:station:USF.COMPS:C10:1,2017-04-03T15:35:00Z,27.1690,-82.9260,-1.0,22.29,2 
COMPS,ioos:station:USF.COMPS:C10:1,2017-04-03T16:05:00Z,27.1690,-82.9260,-1.0,22.3,2 
COMPS,ioos:station:USF.COMPS:C10:1,2017-04-03T16:35:00Z,27.1690,-82.9260,-1.0,22.31,2 
COMPS,ioos:station:USF.COMPS:C10:1,2017-04-03T17:05:00Z,27.1690,-82.9260,-1.0,22.29,2 
COMPS,ioos:station:USF.COMPS:C10:1,2017-04-03T17:35:00Z,27.1690,-82.9260,-1.0,22.33,2 
COMPS,ioos:station:USF.COMPS:C10:1,2017-04-03T18:05:00Z,27.1690,-82.9260,-1.0,22.43,2 
COMPS,ioos:station:USF.COMPS:C10:1,2017-04-03T18:35:00Z,27.1690,-82.9260,-1.0,22.45,2 
COMPS,ioos:station:USF.COMPS:C10:1,2017-04-03T19:05:00Z,27.1690,-82.9260,-1.0,22.49,2 
COMPS,ioos:station:USF.COMPS:C10:1,2017-04-03T19:35:00Z,27.1690,-82.9260,-1.0,22.56,2 
COMPS,ioos:station:USF.COMPS:C10:1,2017-04-03T20:05:00Z,27.1690,-82.9260,-1.0,22.59,2 
COMPS,ioos:station:USF.COMPS:C10:1,2017-04-03T20:35:00Z,27.1690,-82.9260,-1.0,22.58,2 
COMPS,ioos:station:USF.COMPS:C10:1,2017-04-03T21:05:00Z,27.1690,-82.9260,-1.0,22.58,2 
COMPS,ioos:station:USF.COMPS:C10:1,2017-04-03T21:35:00Z,27.1690,-82.9260,-1.0,22.5,2 
COMPS,ioos:station:USF.COMPS:C10:1,2017-04-03T22:05:00Z,27.1690,-82.9260,-1.0,22.44,2 
COMPS,ioos:station:USF.COMPS:C10:1,2017-04-03T22:35:00Z,27.1690,-82.9260,-1.0,22.41,2 
COMPS,ioos:station:USF.COMPS:C10:1,2017-04-03T23:05:00Z,27.1690,-82.9260,-1.0,22.42,2 
COMPS,ioos:station:USF.COMPS:C10:1,2017-04-03T23:35:00Z,27.1690,-82.9260,-1.0,22.36,2 
COMPS,ioos:station:USF.COMPS:C10:1,2017-04-04T00:05:00Z,27.1690,-82.9260,-1.0,22.3,2 
COMPS,ioos:station:USF.COMPS:C10:1,2017-04-04T00:35:00Z,27.1690,-82.9260,-1.0,22.29,2 
COMPS,ioos:station:USF.COMPS:C10:1,2017-04-04T01:05:00Z,27.1690,-82.9260,-1.0,22.29,2 
COMPS,ioos:station:USF.COMPS:C10:1,2017-04-04T01:35:00Z,27.1690,-82.9260,-1.0,22.29,2 
COMPS,ioos:station:USF.COMPS:C10:1,2017-04-04T02:05:00Z,27.1690,-82.9260,-1.0,22.3,2 
COMPS,ioos:station:USF.COMPS:C10:1,2017-04-04T02:35:00Z,27.1690,-82.9260,-1.0,22.31,2 
COMPS,ioos:station:USF.COMPS:C10:1,2017-04-04T03:05:00Z,27.1690,-82.9260,-1.0,22.27,2 
COMPS,ioos:station:USF.COMPS:C10:1,2017-04-04T03:35:00Z,27.1690,-82.9260,-1.0,22.32,2 
COMPS,ioos:station:USF.COMPS:C10:1,2017-04-04T04:05:00Z,27.1690,-82.9260,-1.0,22.29,2 
COMPS,ioos:station:USF.COMPS:C10:1,2017-04-04T04:35:00Z,27.1690,-82.9260,-1.0,22.27,2 
COMPS,ioos:station:USF.COMPS:C10:1,2017-04-04T05:05:00Z,27.1690,-82.9260,-1.0,22.26,2 
COMPS,ioos:station:USF.COMPS:C10:1,2017-04-04T05:35:00Z,27.1690,-82.9260,-1.0,22.17,2 
COMPS,ioos:station:USF.COMPS:C10:1,2017-04-04T06:05:00Z,27.1690,-82.9260,-1.0,22.22,2 
COMPS,ioos:station:USF.COMPS:C10:1,2017-04-04T06:35:00Z,27.1690,-82.9260,-1.0,22.21,2 
COMPS,ioos:station:USF.COMPS:C10:1,2017-04-04T07:05:00Z,27.1690,-82.9260,-1.0,22.24,2 
COMPS,ioos:station:USF.COMPS:C10:1,2017-04-04T07:35:00Z,27.1690,-82.9260,-1.0,22.25,2 
COMPS,ioos:station:USF.COMPS:C10:1,2017-04-04T08:05:00Z,27.1690,-82.9260,-1.0,22.24,2 
COMPS,ioos:station:USF.COMPS:C10:1,2017-04-04T08:35:00Z,27.1690,-82.9260,-1.0,22.23,2 
COMPS,ioos:station:USF.COMPS:C10:1,2017-04-04T09:05:00Z,27.1690,-82.9260,-1.0,22.24,2 
COMPS,ioos:station:USF.COMPS:C10:1,2017-04-04T09:35:00Z,27.1690,-82.9260,-1.0,22.23,2 
COMPS,ioos:station:USF.COMPS:C10:1,2017-04-04T10:05:00Z,27.1690,-82.9260,-1.0,22.22,2 
COMPS,ioos:station:USF.COMPS:C10:1,2017-04-04T10:35:00Z,27.1690,-82.9260,-1.0,22.21,2 
COMPS,ioos:station:USF.COMPS:C10:1,2017-04-04T11:05:00Z,27.1690,-82.9260,-1.0,22.21,2 
COMPS,ioos:station:USF.COMPS:C10:1,2017-04-04T11:35:00Z,27.1690,-82.9260,-1.0,22.2,2 
COMPS,ioos:station:USF.COMPS:C10:1,2017-04-04T12:05:00Z,27.1690,-82.9260,-1.0,22.18,2 
COMPS,ioos:station:USF.COMPS:C10:1,2017-04-04T12:35:00Z,27.1690,-82.9260,-1.0,22.18,2 
COMPS,ioos:station:USF.COMPS:C10:1,2017-04-04T13:05:00Z,27.1690,-82.9260,-1.0,22.19,2 
COMPS,ioos:station:USF.COMPS:C10:1,2017-04-04T13:35:00Z,27.1690,-82.9260,-1.0,22.2,2 
COMPS,ioos:station:USF.COMPS:C10:1,2017-04-04T14:05:00Z,27.1690,-82.9260,-1.0,22.21,2 
COMPS,ioos:station:USF.COMPS:C10:1,2017-04-04T14:35:00Z,27.1690,-82.9260,-1.0,22.24,2 
COMPS,ioos:station:USF.COMPS:C10:1,2017-04-04T15:05:00Z,27.1690,-82.9260,-1.0,22.26,2 
COMPS,ioos:station:USF.COMPS:C10:1,2017-04-04T15:35:00Z,27.1690,-82.9260,-1.0,22.26,2 
COMPS,ioos:station:USF.COMPS:C10:1,2017-04-04T16:05:00Z,27.1690,-82.9260,-1.0,22.29,2 
COMPS,ioos:station:USF.COMPS:C10:1,2017-04-04T16:35:00Z,27.1690,-82.9260,-1.0,22.32,2 
COMPS,ioos:station:USF.COMPS:C10:1,2017-04-04T17:05:00Z,27.1690,-82.9260,-1.0,22.38,2 
COMPS,ioos:station:USF.COMPS:C10:1,2017-04-04T17:35:00Z,27.1690,-82.9260,-1.0,22.72,2 
COMPS,ioos:station:USF.COMPS:C10:1,2017-04-04T18:05:00Z,27.1690,-82.9260,-1.0,22.76,2 
COMPS,ioos:station:USF.COMPS:C10:1,2017-04-04T18:35:00Z,27.1690,-82.9260,-1.0,22.82,2 
COMPS,ioos:station:USF.COMPS:C10:1,2017-04-04T19:05:00Z,27.1690,-82.9260,-1.0,22.83,2 
COMPS,ioos:station:USF.COMPS:C10:1,2017-04-04T19:35:00Z,27.1690,-82.9260,-1.0,23.01,2 
COMPS,ioos:station:USF.COMPS:C10:1,2017-04-04T20:05:00Z,27.1690,-82.9260,-1.0,22.99,2 
COMPS,ioos:station:USF.COMPS:C10:1,2017-04-04T20:35:00Z,27.1690,-82.9260,-1.0,22.99,2 
COMPS,ioos:station:USF.COMPS:C10:1,2017-04-04T21:05:00Z,27.1690,-82.9260,-1.0,23.03,2 
COMPS,ioos:station:USF.COMPS:C10:1,2017-04-04T21:35:00Z,27.1690,-82.9260,-1.0,23.02,2 
COMPS,ioos:station:USF.COMPS:C10:1,2017-04-04T22:05:00Z,27.1690,-82.9260,-1.0,23.07,2 
COMPS,ioos:station:USF.COMPS:C10:1,2017-04-04T22:35:00Z,27.1690,-82.9260,-1.0,23.11,2 
COMPS,ioos:station:USF.COMPS:C10:1,2017-04-05T15:05:00Z,27.1690,-82.9260,-1.0,22.62,2 
COMPS,ioos:station:USF.COMPS:C10:1,2017-04-05T15:35:00Z,27.1690,-82.9260,-1.0,22.62,2 
COMPS,ioos:station:USF.COMPS:C10:1,2017-04-05T16:05:00Z,27.1690,-82.9260,-1.0,22.66,2 
COMPS,ioos:station:USF.COMPS:C10:1,2017-04-05T16:35:00Z,27.1690,-82.9260,-1.0,22.74,2 
COMPS,ioos:station:USF.COMPS:C10:1,2017-04-05T17:05:00Z,27.1690,-82.9260,-1.0,22.79,2 
COMPS,ioos:station:USF.COMPS:C10:1,2017-04-05T17:35:00Z,27.1690,-82.9260,-1.0,22.74,2 
COMPS,ioos:station:USF.COMPS:C10:1,2017-04-05T18:05:00Z,27.1690,-82.9260,-1.0,22.75,2 
COMPS,ioos:station:USF.COMPS:C10:1,2017-04-05T18:35:00Z,27.1690,-82.9260,-1.0,22.78,2 
COMPS,ioos:station:USF.COMPS:C10:1,2017-04-05T19:05:00Z,27.1690,-82.9260,-1.0,22.82,2 
COMPS,ioos:station:USF.COMPS:C10:1,2017-04-05T19:35:00Z,27.1690,-82.9260,-1.0,22.85,2 
COMPS,ioos:station:USF.COMPS:C10:1,2017-04-05T20:05:00Z,27.1690,-82.9260,-1.0,22.9,2 
COMPS,ioos:station:USF.COMPS:C10:1,2017-04-05T20:35:00Z,27.1690,-82.9260,-1.0,22.88,2 
COMPS,ioos:station:USF.COMPS:C10:1,2017-04-05T21:05:00Z,27.1690,-82.9260,-1.0,22.95,2 
COMPS,ioos:station:USF.COMPS:C10:1,2017-04-05T21:35:00Z,27.1690,-82.9260,-1.0,23.04,2 
COMPS,ioos:station:USF.COMPS:C10:1,2017-04-05T22:05:00Z,27.1690,-82.9260,-1.0,23.06,2 
COMPS,ioos:station:USF.COMPS:C10:1,2017-04-05T22:35:00Z,27.1690,-82.9260,-1.0,22.97,2 
COMPS,ioos:station:USF.COMPS:C10:1,2017-04-05T23:05:00Z,27.1690,-82.9260,-1.0,22.99,2 
COMPS,ioos:station:USF.COMPS:C10:1,2017-04-05T23:35:00Z,27.1690,-82.9260,-1.0,23.05,2 
COMPS,ioos:station:USF.COMPS:C10:1,2017-04-06T00:05:00Z,27.1690,-82.9260,-1.0,23.0,2 
COMPS,ioos:station:USF.COMPS:C10:1,2017-04-06T00:35:00Z,27.1690,-82.9260,-1.0,23.11,2 
COMPS,ioos:station:USF.COMPS:C10:1,2017-04-06T01:05:00Z,27.1690,-82.9260,-1.0,23.07,2 
COMPS,ioos:station:USF.COMPS:C10:1,2017-04-06T01:35:00Z,27.1690,-82.9260,-1.0,23.04,2 
COMPS,ioos:station:USF.COMPS:C10:1,2017-04-06T02:05:00Z,27.1690,-82.9260,-1.0,22.98,2 
COMPS,ioos:station:USF.COMPS:C10:1,2017-04-06T02:35:00Z,27.1690,-82.9260,-1.0,22.95,2 
COMPS,ioos:station:USF.COMPS:C10:1,2017-04-06T03:05:00Z,27.1690,-82.9260,-1.0,22.89,2 
COMPS,ioos:station:USF.COMPS:C10:1,2017-04-06T03:35:00Z,27.1690,-82.9260,-1.0,22.9,2 
COMPS,ioos:station:USF.COMPS:C10:1,2017-04-06T04:05:00Z,27.1690,-82.9260,-1.0,22.9,2 
COMPS,ioos:station:USF.COMPS:C10:1,2017-04-06T04:35:00Z,27.1690,-82.9260,-1.0,22.9,2 
COMPS,ioos:station:USF.COMPS:C10:1,2017-04-06T05:05:00Z,27.1690,-82.9260,-1.0,22.92,2 
COMPS,ioos:station:USF.COMPS:C10:1,2017-04-06T05:35:00Z,27.1690,-82.9260,-1.0,22.89,2 
COMPS,ioos:station:USF.COMPS:C10:1,2017-04-06T06:05:00Z,27.1690,-82.9260,-1.0,22.86,2 
COMPS,ioos:station:USF.COMPS:C10:1,2017-04-06T06:35:00Z,27.1690,-82.9260,-1.0,22.83,2 
COMPS,ioos:station:USF.COMPS:C10:1,2017-04-06T07:05:00Z,27.1690,-82.9260,-1.0,22.82,2 
COMPS,ioos:station:USF.COMPS:C10:1,2017-04-06T07:35:00Z,27.1690,-82.9260,-1.0,22.82,2 
COMPS,ioos:station:USF.COMPS:C10:1,2017-04-06T08:05:00Z,27.1690,-82.9260,-1.0,22.81,2 
COMPS,ioos:station:USF.COMPS:C10:1,2017-04-06T08:35:00Z,27.1690,-82.9260,-1.0,22.75,2 
COMPS,ioos:station:USF.COMPS:C10:1,2017-04-06T09:05:00Z,27.1690,-82.9260,-1.0,22.75,2 
COMPS,ioos:station:USF.COMPS:C10:1,2017-04-06T09:35:00Z,27.1690,-82.9260,-1.0,22.76,2 
COMPS,ioos:station:USF.COMPS:C10:1,2017-04-06T10:05:00Z,27.1690,-82.9260,-1.0,22.76,2 
COMPS,ioos:station:USF.COMPS:C10:1,2017-04-06T10:35:00Z,27.1690,-82.9260,-1.0,22.75,2 
COMPS,ioos:station:USF.COMPS:C10:1,2017-04-06T11:05:00Z,27.1690,-82.9260,-1.0,22.76,2 
COMPS,ioos:station:USF.COMPS:C10:1,2017-04-06T11:35:00Z,27.1690,-82.9260,-1.0,22.77,2 
COMPS,ioos:station:USF.COMPS:C10:1,2017-04-06T12:05:00Z,27.1690,-82.9260,-1.0,22.78,2 
COMPS,ioos:station:USF.COMPS:C10:1,2017-04-06T12:35:00Z,27.1690,-82.9260,-1.0,22.73,2 
COMPS,ioos:station:USF.COMPS:C10:1,2017-04-06T14:05:00Z,27.1690,-82.9260,-1.0,22.74,2 
COMPS,ioos:station:USF.COMPS:C10:1,2017-04-06T14:35:00Z,27.1690,-82.9260,-1.0,22.73,2 
COMPS,ioos:station:USF.COMPS:C10:1,2017-04-06T16:05:00Z,27.1690,-82.9260,-1.0,22.76,2 
COMPS,ioos:station:USF.COMPS:C10:1,2017-04-06T16:35:00Z,27.1690,-82.9260,-1.0,22.76,2 
COMPS,ioos:station:USF.COMPS:C10:1,2017-04-06T17:05:00Z,27.1690,-82.9260,-1.0,22.78,2 
COMPS,ioos:station:USF.COMPS:C10:1,2017-04-06T17:35:00Z,27.1690,-82.9260,-1.0,22.79,2 
COMPS,ioos:station:USF.COMPS:C10:1,2017-04-06T18:05:00Z,27.1690,-82.9260,-1.0,22.81,2 
COMPS,ioos:station:USF.COMPS:C10:1,2017-04-06T18:35:00Z,27.1690,-82.9260,-1.0,22.82,2 
COMPS,ioos:station:USF.COMPS:C10:1,2017-04-06T20:05:00Z,27.1690,-82.9260,-1.0,22.85,2 
COMPS,ioos:station:USF.COMPS:C10:1,2017-04-06T20:35:00Z,27.1690,-82.9260,-1.0,22.86,2 
COMPS,ioos:station:USF.COMPS:C10:1,2017-04-06T21:05:00Z,27.1690,-82.9260,-1.0,22.86,2 
COMPS,ioos:station:USF.COMPS:C10:1,2017-04-06T21:35:00Z,27.1690,-82.9260,-1.0,22.85,2 
COMPS,ioos:station:USF.COMPS:C10:1,2017-04-06T22:05:00Z,27.1690,-82.9260,-1.0,22.85,2 
COMPS,ioos:station:USF.COMPS:C10:1,2017-04-06T22:35:00Z,27.1690,-82.9260,-1.0,22.84,2 
COMPS,ioos:station:USF.COMPS:C10:1,2017-04-06T23:05:00Z,27.1690,-82.9260,-1.0,22.82,2 
COMPS,ioos:station:USF.COMPS:C10:1,2017-04-06T23:35:00Z,27.1690,-82.9260,-1.0,22.82,2 
COMPS,ioos:station:USF.COMPS:C10:1,2017-04-07T00:05:00Z,27.1690,-82.9260,-1.0,22.8,2 
COMPS,ioos:station:USF.COMPS:C10:1,2017-04-07T00:35:00Z,27.1690,-82.9260,-1.0,22.78,2 
COMPS,ioos:station:USF.COMPS:C10:1,2017-04-07T01:05:00Z,27.1690,-82.9260,-1.0,22.75,2 
COMPS,ioos:station:USF.COMPS:C10:1,2017-04-07T01:35:00Z,27.1690,-82.9260,-1.0,22.74,2 
COMPS,ioos:station:USF.COMPS:C10:1,2017-04-07T02:05:00Z,27.1690,-82.9260,-1.0,22.74,2 
COMPS,ioos:station:USF.COMPS:C10:1,2017-04-07T02:35:00Z,27.1690,-82.9260,-1.0,22.73,2 
COMPS,ioos:station:USF.COMPS:C10:1,2017-04-07T03:05:00Z,27.1690,-82.9260,-1.0,22.71,2 
COMPS,ioos:station:USF.COMPS:C10:1,2017-04-07T03:35:00Z,27.1690,-82.9260,-1.0,22.7,2 
COMPS,ioos:station:USF.COMPS:C10:1,2017-04-07T04:05:00Z,27.1690,-82.9260,-1.0,22.66,2 
COMPS,ioos:station:USF.COMPS:C10:1,2017-04-07T04:35:00Z,27.1690,-82.9260,-1.0,22.66,2 
COMPS,ioos:station:USF.COMPS:C10:1,2017-04-07T05:05:00Z,27.1690,-82.9260,-1.0,22.66,2 
COMPS,ioos:station:USF.COMPS:C10:1,2017-04-07T05:35:00Z,27.1690,-82.9260,-1.0,22.63,2 
COMPS,ioos:station:USF.COMPS:C10:1,2017-04-07T06:05:00Z,27.1690,-82.9260,-1.0,22.6,2 
COMPS,ioos:station:USF.COMPS:C10:1,2017-04-07T06:35:00Z,27.1690,-82.9260,-1.0,22.56,2 
COMPS,ioos:station:USF.COMPS:C10:1,2017-04-07T08:05:00Z,27.1690,-82.9260,-1.0,22.52,2 
COMPS,ioos:station:USF.COMPS:C10:1,2017-04-07T08:35:00Z,27.1690,-82.9260,-1.0,22.53,2 
COMPS,ioos:station:USF.COMPS:C10:1,2017-04-07T09:05:00Z,27.1690,-82.9260,-1.0,22.5,2 
COMPS,ioos:station:USF.COMPS:C10:1,2017-04-07T09:35:00Z,27.1690,-82.9260,-1.0,22.48,2 
COMPS,ioos:station:USF.COMPS:C10:1,2017-04-07T10:05:00Z,27.1690,-82.9260,-1.0,22.47,2 
COMPS,ioos:station:USF.COMPS:C10:1,2017-04-07T10:35:00Z,27.1690,-82.9260,-1.0,22.45,2 
COMPS,ioos:station:USF.COMPS:C10:1,2017-04-07T12:05:00Z,27.1690,-82.9260,-1.0,22.47,2 
COMPS,ioos:station:USF.COMPS:C10:1,2017-04-07T12:35:00Z,27.1690,-82.9260,-1.0,22.47,2 
COMPS,ioos:station:USF.COMPS:C10:1,2017-04-07T13:05:00Z,27.1690,-82.9260,-1.0,22.47,2 
COMPS,ioos:station:USF.COMPS:C10:1,2017-04-07T13:35:00Z,27.1690,-82.9260,-1.0,22.48,2 
COMPS,ioos:station:USF.COMPS:C10:1,2017-04-07T14:05:00Z,27.1690,-82.9260,-1.0,22.44,2 
COMPS,ioos:station:USF.COMPS:C10:1,2017-04-07T14:35:00Z,27.1690,-82.9260,-1.0,22.46,2 
COMPS,ioos:station:USF.COMPS:C10:1,2017-04-07T17:05:00Z,27.1690,-82.9260,-1.0,22.54,2 
COMPS,ioos:station:USF.COMPS:C10:1,2017-04-07T17:35:00Z,27.1690,-82.9260,-1.0,22.56,2 
COMPS,ioos:station:USF.COMPS:C10:1,2017-04-07T18:05:00Z,27.1690,-82.9260,-1.0,22.57,2 
COMPS,ioos:station:USF.COMPS:C10:1,2017-04-07T18:35:00Z,27.1690,-82.9260,-1.0,22.57,2 
COMPS,ioos:station:USF.COMPS:C10:1,2017-04-07T19:05:00Z,27.1690,-82.9260,-1.0,22.58,2 
COMPS,ioos:station:USF.COMPS:C10:1,2017-04-07T19:35:00Z,27.1690,-82.9260,-1.0,22.59,2 
COMPS,ioos:station:USF.COMPS:C10:1,2017-04-07T20:05:00Z,27.1690,-82.9260,-1.0,22.59,2 
COMPS,ioos:station:USF.COMPS:C10:1,2017-04-07T20:35:00Z,27.1690,-82.9260,-1.0,22.58,2 
COMPS,ioos:station:USF.COMPS:C10:1,2017-04-07T21:05:00Z,27.1690,-82.9260,-1.0,22.54,2 
COMPS,ioos:station:USF.COMPS:C10:1,2017-04-07T21:35:00Z,27.1690,-82.9260,-1.0,22.53,2 
COMPS,ioos:station:USF.COMPS:C10:1,2017-04-07T23:05:00Z,27.1690,-82.9260,-1.0,22.45,2 
COMPS,ioos:station:USF.COMPS:C10:1,2017-04-07T23:35:00Z,27.1690,-82.9260,-1.0,22.45,2 
COMPS,ioos:station:USF.COMPS:C10:1,2017-04-08T00:05:00Z,27.1690,-82.9260,-1.0,22.42,2 